{"data":{"norad_id":46160,"epoch":"2026-05-25T01:08:53.344032Z","epoch_age_seconds":68052,"freshness":"FRESH","line1":"1 46160U 20057AV  26145.04783963  .00083565  00000+0  69898-3 0  9998","line2":"2 46160  53.0454 271.1701 0002917 156.1690 203.9461 15.69309083319705","mean_motion":15.69309083,"eccentricity":0.0002917,"inclination_deg":53.0454,"raan_deg":271.1701,"arg_perigee_deg":156.169,"mean_anomaly_deg":203.9461,"bstar":0.00069898,"rev_number":31970,"period_min":91.760126516772,"perigee_km":358.90849606564,"apogee_km":362.84003523802,"semimajor_km":6739.0112656518,"source":"CELESTRAK","updated_at":"2026-05-25T13:38:16.468248Z"}}